Regional Weather Roundup
Issued by NWS

Home | Current Version | Previous Version | Text Only | Print | Product List | Glossary Off
Versions: 1 2 3 4 5 6 7 8 9 10 11 12 13 14 15 16 17 18 19 20 21 22 23 24 25 26 27 28 29 30 31 32 33 34 35 36 37 38 39 40 41 42 43 44 45 46 47 48 49 50

000
ASUS43 KMKX 232021
RWRWI

WISCONSIN REGIONAL WEATHER ROUNDUP
NATIONAL WEATHER SERVICE MILWAUKEE/SULLIVAN WI
300 PM CDT SAT JUL 23 2016

NOTE: "FAIR" INDICATES FEW OR NO CLOUDS BELOW 12,000 FEET WITH NO
SIGNIFICANT WEATHER AND/OR OBSTRUCTIONS TO VISIBILITY.

WIZ001-002-006>008-014>016-023>028-232100-
NORTHWEST WISCONSIN

CITY           SKY/WX    TMP DP  RH WIND       PRES   REMARKS
SUPERIOR ARPT  CLOUDY    64  60  87 E12G17    29.91R
ASHLAND        CLOUDY    73  65  75 N6        29.91F
HAYWARD        LGT RAIN  76  67  73 S15       29.92F
SIREN          RAIN      73  70  88 SW8       29.91R
CUMBERLAND     LGT RAIN  70  68  94 S8        29.91F
RICE LAKE      LGT RAIN  71  69  92 SE8       29.91F
CHETEK         DRIZZLE   72  70  94 SE8       29.91F
LADYSMITH      CLOUDY    78  70  77 S12       29.95F HX  80
EAU CLAIRE     LGT RAIN  73  71  93 SE15      29.88F
MENOMONIE      CLOUDY    73  73  98 SE12      29.88F
NEW RICHMOND   CLOUDY    70  69  97 E8        29.87F
OSCEOLA        LGT RAIN  72  72 100 SE7       29.91F
$$

WIZ003>005-009-010-017-018-232100-
NORTH CENTRAL WISCONSIN

CITY           SKY/WX    TMP DP  RH WIND       PRES   REMARKS
MANITOWISH WTR CLOUDY    81  66  61 S9        29.97F HX  83
ARBOR VITAE    CLOUDY    82  68  62 S7        29.98F HX  85
WOODRUFF       CLOUDY    82  68  62 S7        29.98F HX  85
RHINELANDER    CLOUDY    81  66  60 S7        29.99F HX  83
EAGLE RIVER    CLOUDY    82  60  47 S8        29.98F HX  82
LAND O LAKES   CLOUDY    84  59  42 S6        29.99F HX  84
PHILLIPS       CLOUDY    77  71  79 S8        29.96F
TOMAHAWK       CLOUDY    79  68  69 CALM      29.98F HAZE    HX  81
MEDFORD        LGT RAIN  73  73 100 SW9       29.99R
MERRILL        CLOUDY    80  70  70 S7        29.98F HX  83
$$

WIZ029-030-035-036-043>047-232100-
CENTRAL WISCONSIN

CITY           SKY/WX    TMP DP  RH WIND       PRES   REMARKS
WAUSAU         CLOUDY    80  69  69 S7        29.96F HX  83
MOSINEE        MOSUNNY   79  72  78 S6        29.99F HX  82
MARSHFIELD     CLOUDY    77  69  76 W7        29.98F
STEVENS POINT  CLOUDY    80  71  74 S10       29.99S HX  83
WAUPACA        CLOUDY    85  71  61 SE5       29.98S HX  90
WAUTOMA        CLOUDY    81  77  88 S6        29.98S HX  88
WISC RAPIDS    CLOUDY    80  66  62 W9        29.99S HX  82
CAMP DOUGLAS   LGT RAIN  72  72 100 E6        29.96F
$$

WIZ011>013-019>022-031-037>040-048>050-232100-
NORTHEAST WISCONSIN

CITY           SKY/WX    TMP DP  RH WIND       PRES   REMARKS
ANTIGO         CLOUDY    78  67  69 CALM      30.00F HX  80
SHAWANO        CLOUDY    85  67  56 CALM      29.98S HX  87
OCONTO         CLOUDY    81  68  65 CALM      29.96F HX  84
STURGEON BAY   CLOUDY    81  65  58 MISG      29.98F HX  83
GREEN BAY      CLOUDY    83  71  67 S8        29.97F HX  87
MANITOWOC      CLOUDY    82  64  54 SE7       29.98F HX  83
APPLETON       CLOUDY    84  66  54 SW6       29.97F HX  86
CLINTONVILLE   CLOUDY    82  70  65 SE3       29.97F HX  86
OSHKOSH        CLOUDY    85  74  69 W5        29.97F HX  92
$$

WIZ032>034-041-042-053>061-232100-
SOUTHWEST WISCONSIN

CITY           SKY/WX    TMP DP  RH WIND       PRES   REMARKS
LA CROSSE      TSTM      72  71  97 S6        29.96R FOG
SPARTA         TSTM      70  70  99 NW9       29.98R
VIROQUA        CLOUDY    70  70 100 CALM      29.96R
BOSCOBEL       CLOUDY    75  72  90 CALM      29.93F
PRAIRIE DU CHI CLOUDY    71  70  96 CALM      29.93R
PLATTEVILLE    CLOUDY    76  74  94 E12       29.95F
$$

WIZ056-057-062-063-064-067-068-232100-
SOUTH CENTRAL WISCONSIN

CITY           SKY/WX    TMP DP  RH WIND       PRES   REMARKS
REEDSBURG      LGT RAIN N/A N/A N/A E5        29.94F
BARABOO/DELLS  LGT RAIN  73  69  88 CALM      29.96F
LONE ROCK      CLOUDY    74  71  91 E8        29.94F
MINERAL POINT  CLOUDY    72  72 100 E7        29.94F
MADISON        TSTM      70  69  97 E9        29.95F
MIDDLETON      CLOUDY    71  70  98 W8        29.94F
WATERTOWN      TSTM      73  72  98 SW7       29.98F
MONROE         CLOUDY    70  68  94 N8        29.97F
JANESVILLE     TSTM      84  79  84 CALM      29.97F HX  96
$$

WIZ051-052-058>065-066-070>072-232100-
SOUTHEAST WISCONSIN

CITY           SKY/WX    TMP DP  RH WIND       PRES   REMARKS
MILWAUKEE      CLOUDY    85  73  67 SE9       29.96F HX  91
WAUKESHA       TSTM      75  72  88 W9        30.00S FOG
MILWAUKEE/TIMM SUNNY     84  70  61 E6        29.98F HX  88
RACINE         CLOUDY    84  74  71 SE7       29.98F HX  91
BURLINGTON     CLOUDY    84  75  75 SW3       29.97F HX  92
KENOSHA        CLOUDY    86  75  69 SE8       29.98F HX  95
FOND DU LAC    CLOUDY    85  74  69 SW7       29.97F HX  92
SHEBOYGAN      CLOUDY    84  70  62 SE6       29.98F HX  88
WEST BEND      CLOUDY    84  70  61 SE3       29.97F HX  88
JUNEAU         LGT RAIN  79  77  94 CALM      29.98F HX  83
$$

LSZ147-162-232100-
LAKE SUPERIOR

STATION/POSITION TIME  TEMP    WIND        PRES    WAVE
                       AIR SEA DIR/SP/G            HT/PER
                 (UTC) (F)     (DEG/KT/KT) (MB)    (FT/S)
W MID LAKE BUOY  1950   61 59   70/ 14/ 16 1013.0F   1/ 3
DEVILS ISLAND    2000   63      60/ 11/ 13 1012.9F
PORT WING        1900   65      30/ 17/ 18 1012.9F
SAXON HARBOR     1900   71     300/  2/  3 1013.2
$$

LMZ867-665-643>646-232100-
LAKE MICHIGAN

STATION/POSITION TIME  TEMP    WIND        PRES    WAVE
                       AIR SEA DIR/SP/G            HT/PER
                 (UTC) (F)     (DEG/KT/KT) (MB)    (FT/S)
CHAMBERS ISLAND  1900   81      80/  4/  6 1015.2F
S GREEN BAY BUOY 2000   76 76   70/  4/  4   N/A
N MID LAKE BUOY  1950   73 73   CALM  /  2 1014.7F   1
NORTHPORT PIER   1900   75     130/  4/  4 1015.2F
KEWAUNEE LAKESHO 1900   74      40/  2/  5 1015.3F
SHEBOYGAN LAKESH 2000   69      30/  4/  4 1015.2F
PORT WASHINGTON  1940   68      40/  4/  7 1015.9F
MILWAUKEE LAKESH 1910   71      40/  5/  5   N/A
S MID LAKE BUOY  1950   80 78  140/  2/  2 1014.2F   0
KENOSHA   LAKESH 2000   78     160/  1/  2 1014.2F
$$

TC  - TEMPERATURE IN CELSIUS
VSB - VISIBILITY IN STATUTE MILES
WCI - WIND CHILL INDEX
HX  - HEAT INDEX





USA.gov is the U.S. government's official web portal to all federal, state and local government web resources and services.